Time,TemperatureF,DewpointF,PressureIn,WindDirection,WindDirectionDegrees,WindSpeedMPH,WindSpeedGustMPH,Humidity,HourlyPrecipIn,Conditions,Clouds,dailyrainin,SoftwareType,DateUTC
2013-02-16 00:08:00,43.9,43.6,29.76,ESE,112,0.0,-999.0,99,-99.99,,,0.00,Acu-Link.com,2013-02-16 05:08:00,
2013-02-16 00:23:00,44.4,44.1,29.76,ESE,112,0.0,-999.0,99,-99.99,,,0.00,Acu-Link.com,2013-02-16 05:23:00,
2013-02-16 00:39:00,45.1,44.8,29.76,South,180,0.0,-999.0,99,-99.99,,,0.00,Acu-Link.com,2013-02-16 05:39:00,
2013-02-16 00:54:00,45.9,45.6,29.76,SSW,202,0.0,-999.0,99,-99.99,,,0.00,Acu-Link.com,2013-02-16 05:54:00,
2013-02-16 01:09:00,46.4,46.1,29.76,SSW,202,0.0,-999.0,99,-99.99,,,0.00,Acu-Link.com,2013-02-16 06:09:00,
2013-02-16 01:24:00,46.6,46.3,29.76,South,180,0.0,-999.0,99,-99.99,,,0.00,Acu-Link.com,2013-02-16 06:24:00,
2013-02-16 01:40:00,46.8,46.5,29.75,South,180,0.0,-999.0,99,-99.99,,,0.00,Acu-Link.com,2013-02-16 06:40:00,
2013-02-16 01:55:00,46.6,46.3,29.75,SSW,202,0.0,-999.0,99,-99.99,,,0.00,Acu-Link.com,2013-02-16 06:55:00,
2013-02-16 02:10:00,46.6,46.3,29.75,SSW,202,0.0,-999.0,99,-99.99,,,0.00,Acu-Link.com,2013-02-16 07:10:00,
2013-02-16 02:26:00,46.0,45.7,29.75,SSW,202,1.7,-999.0,99,-99.99,,,0.00,Acu-Link.com,2013-02-16 07:26:00,
2013-02-16 02:41:00,46.2,45.9,29.74,SSW,202,0.0,-999.0,99,-99.99,,,0.00,Acu-Link.com,2013-02-16 07:41:00,
2013-02-16 02:56:00,46.2,45.9,29.73,SSW,202,0.0,-999.0,99,-99.99,,,0.00,Acu-Link.com,2013-02-16 07:56:00,
2013-02-16 03:11:00,45.9,45.6,29.73,SSW,202,0.0,-999.0,99,-99.99,,,0.00,Acu-Link.com,2013-02-16 08:11:00,
2013-02-16 03:27:00,45.5,45.2,29.72,SSW,202,0.0,-999.0,99,-99.99,,,0.00,Acu-Link.com,2013-02-16 08:27:00,
2013-02-16 03:42:00,45.5,45.2,29.71,SSW,202,0.0,-999.0,99,-99.99,,,0.00,Acu-Link.com,2013-02-16 08:42:00,
2013-02-16 03:57:00,45.3,45.0,29.70,SW,225,0.0,-999.0,99,-99.99,,,0.00,Acu-Link.com,2013-02-16 08:57:00,
2013-02-16 04:18:00,44.8,44.5,29.70,SW,225,0.0,-999.0,99,-99.99,,,0.00,Acu-Link.com,2013-02-16 09:18:00,
2013-02-16 04:33:00,45.0,44.7,29.69,SW,225,0.0,-999.0,99,-99.99,,,0.00,Acu-Link.com,2013-02-16 09:33:00,
2013-02-16 04:49:00,44.2,43.9,29.69,WNW,292,0.0,-999.0,99,-99.99,,,0.00,Acu-Link.com,2013-02-16 09:49:00,
2013-02-16 05:04:00,44.8,44.5,29.70,WNW,292,0.0,-999.0,99,-99.99,,,0.00,Acu-Link.com,2013-02-16 10:04:00,
2013-02-16 05:19:00,44.4,44.1,29.69,WNW,292,0.0,-999.0,99,-99.99,,,0.00,Acu-Link.com,2013-02-16 10:19:00,
2013-02-16 05:34:00,45.1,44.8,29.69,ESE,112,2.2,-999.0,99,-99.99,,,0.00,Acu-Link.com,2013-02-16 10:34:00,
2013-02-16 05:49:00,44.8,44.5,29.69,South,180,0.0,-999.0,99,-99.99,,,0.00,Acu-Link.com,2013-02-16 10:49:00,
2013-02-16 06:05:00,44.6,44.3,29.69,SW,225,1.1,-999.0,99,-99.99,,,0.00,Acu-Link.com,2013-02-16 11:05:00,
2013-02-16 06:20:00,44.1,43.8,29.69,NW,315,0.0,-999.0,99,-99.99,,,0.00,Acu-Link.com,2013-02-16 11:20:00,
2013-02-16 06:35:00,43.7,43.4,29.69,SSE,157,0.0,-999.0,99,-99.99,,,0.00,Acu-Link.com,2013-02-16 11:35:00,
2013-02-16 06:51:00,43.5,43.2,29.69,South,180,0.0,-999.0,99,-99.99,,,0.00,Acu-Link.com,2013-02-16 11:51:00,
2013-02-16 07:06:00,42.4,42.1,29.68,SSE,157,0.0,-999.0,99,-99.99,,,0.00,Acu-Link.com,2013-02-16 12:06:00,
2013-02-16 07:21:00,42.3,42.0,29.68,SSE,157,0.0,-999.0,99,-99.99,,,0.00,Acu-Link.com,2013-02-16 12:21:00,
2013-02-16 07:37:00,42.4,42.1,29.68,SE,135,0.0,-999.0,99,-99.99,,,0.00,Acu-Link.com,2013-02-16 12:37:00,
2013-02-16 07:52:00,44.1,43.8,29.67,SSE,157,0.0,-999.0,99,-99.99,,,0.00,Acu-Link.com,2013-02-16 12:52:00,
2013-02-16 08:07:00,48.6,48.3,29.67,WNW,292,2.2,-999.0,99,-99.99,,,0.00,Acu-Link.com,2013-02-16 13:07:00,
2013-02-16 08:22:00,47.7,47.4,29.67,West,270,3.7,-999.0,99,-99.99,,,0.00,Acu-Link.com,2013-02-16 13:22:00,
2013-02-16 08:38:00,48.4,46.8,29.67,West,270,6.8,-999.0,94,-99.99,,,0.00,Acu-Link.com,2013-02-16 13:38:00,
2013-02-16 08:53:00,48.7,46.8,29.68,WNW,292,6.8,-999.0,93,-99.99,,,0.00,Acu-Link.com,2013-02-16 13:53:00,
2013-02-16 09:08:00,48.7,46.8,29.68,North,0,3.2,-999.0,93,-99.99,,,0.00,Acu-Link.com,2013-02-16 14:08:00,
2013-02-16 09:24:00,49.5,46.4,29.67,NNW,337,6.8,-999.0,89,-99.99,,,0.00,Acu-Link.com,2013-02-16 14:24:00,
2013-02-16 09:39:00,50.4,46.7,29.67,NW,315,8.9,-999.0,87,-99.99,,,0.00,Acu-Link.com,2013-02-16 14:39:00,
2013-02-16 09:55:00,50.7,46.7,29.68,North,0,2.7,-999.0,86,-99.99,,,0.00,Acu-Link.com,2013-02-16 14:55:00,
2013-02-16 10:10:00,51.4,47.0,29.67,NW,315,7.8,-999.0,85,-99.99,,,0.00,Acu-Link.com,2013-02-16 15:10:00,
2013-02-16 10:26:00,52.2,46.5,29.66,WSW,247,3.7,-999.0,81,-99.99,,,0.00,Acu-Link.com,2013-02-16 15:26:00,
2013-02-16 10:41:00,52.9,46.9,29.66,West,270,3.7,-999.0,80,-99.99,,,0.00,Acu-Link.com,2013-02-16 15:41:00,
2013-02-16 10:56:00,53.6,47.2,29.65,WNW,292,5.3,-999.0,79,-99.99,,,0.00,Acu-Link.com,2013-02-16 15:56:00,
2013-02-16 11:11:00,54.5,47.4,29.67,NNW,337,11.4,-999.0,77,-99.99,,,0.00,Acu-Link.com,2013-02-16 16:11:00,
2013-02-16 11:27:00,52.9,46.6,29.67,WNW,292,7.3,-999.0,79,-99.99,,,0.00,Acu-Link.com,2013-02-16 16:27:00,
2013-02-16 11:42:00,53.4,45.3,29.66,West,270,11.9,-999.0,74,-99.99,,,0.00,Acu-Link.com,2013-02-16 16:42:00,
2013-02-16 11:57:00,53.2,45.1,29.67,NW,315,11.4,-999.0,74,-99.99,,,0.00,Acu-Link.com,2013-02-16 16:57:00,
2013-02-16 12:13:00,52.7,44.3,29.67,WSW,247,7.8,-999.0,73,-99.99,,,0.00,Acu-Link.com,2013-02-16 17:13:00,
2013-02-16 12:28:00,52.3,42.8,29.66,West,270,9.9,-999.0,70,-99.99,,,0.00,Acu-Link.com,2013-02-16 17:28:00,
2013-02-16 12:43:00,51.6,41.8,29.66,WNW,292,13.0,-999.0,69,-99.99,,,0.00,Acu-Link.com,2013-02-16 17:43:00,
2013-02-16 12:59:00,50.2,40.1,29.66,WNW,292,13.5,-999.0,68,-99.99,,,0.00,Acu-Link.com,2013-02-16 17:59:00,
2013-02-16 13:14:00,48.0,40.5,29.66,WNW,292,13.0,-999.0,75,-99.99,,,0.00,Acu-Link.com,2013-02-16 18:14:00,
2013-02-16 13:30:00,45.9,40.4,29.68,West,270,18.6,-999.0,81,-99.99,,,0.00,Acu-Link.com,2013-02-16 18:30:00,
2013-02-16 13:45:00,43.9,39.4,29.68,WSW,247,18.1,-999.0,84,-99.99,,,0.00,Acu-Link.com,2013-02-16 18:45:00,
2013-02-16 14:00:00,43.3,39.4,29.69,West,270,15.5,-999.0,86,-99.99,,,0.00,Acu-Link.com,2013-02-16 19:00:00,
2013-02-16 14:15:00,42.8,39.2,29.68,WNW,292,9.9,-999.0,87,-99.99,,,0.00,Acu-Link.com,2013-02-16 19:15:00,
2013-02-16 14:30:00,42.1,39.1,29.70,West,270,10.9,-999.0,89,-99.99,,,0.00,Acu-Link.com,2013-02-16 19:30:00,
2013-02-16 14:45:00,41.0,39.1,29.69,NW,315,11.9,-999.0,93,-99.99,,,0.01,Acu-Link.com,2013-02-16 19:45:00,
2013-02-16 15:01:00,40.5,38.4,29.67,North,0,6.3,-999.0,92,-99.99,,,0.03,Acu-Link.com,2013-02-16 20:01:00,
2013-02-16 15:16:00,40.5,38.1,29.65,NNE,22,7.8,-999.0,91,-99.99,,,0.03,Acu-Link.com,2013-02-16 20:16:00,
2013-02-16 15:31:00,41.0,38.6,29.66,NNE,22,1.1,-999.0,91,-99.99,,,0.03,Acu-Link.com,2013-02-16 20:31:00,
2013-02-16 15:47:00,41.5,39.1,29.67,WSW,247,6.3,-999.0,91,-99.99,,,0.03,Acu-Link.com,2013-02-16 20:47:00,
2013-02-16 16:02:00,41.7,39.3,29.68,West,270,6.3,-999.0,91,-99.99,,,0.03,Acu-Link.com,2013-02-16 21:02:00,
2013-02-16 16:17:00,44.1,39.6,29.67,SSW,202,4.7,-999.0,84,-99.99,,,0.03,Acu-Link.com,2013-02-16 21:17:00,
2013-02-16 16:33:00,44.6,40.4,29.67,NW,315,5.3,-999.0,85,-99.99,,,0.03,Acu-Link.com,2013-02-16 21:33:00,
2013-02-16 16:48:00,44.4,38.9,29.67,West,270,6.8,-999.0,81,-99.99,,,0.03,Acu-Link.com,2013-02-16 21:48:00,
2013-02-16 17:03:00,44.2,39.1,29.68,West,270,5.3,-999.0,82,-99.99,,,0.03,Acu-Link.com,2013-02-16 22:03:00,
2013-02-16 17:19:00,44.2,38.4,29.67,West,270,6.3,-999.0,80,-99.99,,,0.03,Acu-Link.com,2013-02-16 22:19:00,
2013-02-16 17:34:00,43.2,38.4,29.68,West,270,6.8,-999.0,83,-99.99,,,0.03,Acu-Link.com,2013-02-16 22:34:00,
2013-02-16 17:49:00,42.8,38.3,29.68,SSE,157,2.2,-999.0,84,-99.99,,,0.03,Acu-Link.com,2013-02-16 22:49:00,
2013-02-16 18:04:00,42.4,37.9,29.68,SW,225,4.7,-999.0,84,-99.99,,,0.03,Acu-Link.com,2013-02-16 23:04:00,
2013-02-16 18:19:00,42.1,37.9,29.68,WSW,247,3.2,-999.0,85,-99.99,,,0.03,Acu-Link.com,2013-02-16 23:19:00,
2013-02-16 18:34:00,41.5,38.2,29.69,West,270,4.2,-999.0,88,-99.99,,,0.03,Acu-Link.com,2013-02-16 23:34:00,
2013-02-16 18:50:00,41.5,37.9,29.69,West,270,3.2,-999.0,87,-99.99,,,0.03,Acu-Link.com,2013-02-16 23:50:00,
2013-02-16 19:05:00,42.1,38.5,29.70,West,270,4.7,-999.0,87,-99.99,,,0.03,Acu-Link.com,2013-02-17 00:05:00,
2013-02-16 19:20:00,42.1,38.8,29.71,West,270,4.2,-999.0,88,-99.99,,,0.03,Acu-Link.com,2013-02-17 00:20:00,
2013-02-16 19:36:00,42.8,37.7,29.71,West,270,5.3,-999.0,82,-99.99,,,0.03,Acu-Link.com,2013-02-17 00:36:00,
2013-02-16 19:51:00,43.5,35.1,29.72,West,270,11.9,-999.0,72,-99.99,,,0.03,Acu-Link.com,2013-02-17 00:51:00,
2013-02-16 20:07:00,43.3,30.8,29.72,WSW,247,14.0,-999.0,61,-99.99,,,0.04,Acu-Link.com,2013-02-17 01:07:00,
2013-02-16 20:22:00,42.6,27.6,29.74,WSW,247,11.4,-999.0,55,-99.99,,,0.04,Acu-Link.com,2013-02-17 01:22:00,
2013-02-16 20:37:00,42.6,25.8,29.75,West,270,16.1,-999.0,51,-99.99,,,0.04,Acu-Link.com,2013-02-17 01:37:00,
2013-02-16 20:52:00,42.4,23.6,29.76,West,270,11.4,-999.0,47,-99.99,,,0.04,Acu-Link.com,2013-02-17 01:52:00,
2013-02-16 21:08:00,42.1,22.3,29.77,WNW,292,8.9,-999.0,45,-99.99,,,0.04,Acu-Link.com,2013-02-17 02:08:00,
2013-02-16 21:23:00,41.7,21.4,29.78,West,270,13.0,-999.0,44,-99.99,,,0.04,Acu-Link.com,2013-02-17 02:23:00,
2013-02-16 21:38:00,41.4,21.7,29.79,WNW,292,9.4,-999.0,45,-99.99,,,0.04,Acu-Link.com,2013-02-17 02:38:00,
2013-02-16 21:53:00,40.5,22.4,29.80,NW,315,7.3,-999.0,48,-99.99,,,0.04,Acu-Link.com,2013-02-17 02:53:00,
2013-02-16 22:09:00,39.6,29.2,29.82,NW,315,13.0,-999.0,66,-99.99,,,0.04,Acu-Link.com,2013-02-17 03:09:00,
2013-02-16 22:24:00,39.2,29.9,29.82,West,270,10.4,-999.0,69,-99.99,,,0.04,Acu-Link.com,2013-02-17 03:24:00,
2013-02-16 22:39:00,38.8,29.5,29.83,West,270,9.4,-999.0,69,-99.99,,,0.04,Acu-Link.com,2013-02-17 03:39:00,
2013-02-16 22:54:00,38.5,29.9,29.84,West,270,7.8,-999.0,71,-99.99,,,0.04,Acu-Link.com,2013-02-17 03:54:00,
2013-02-16 23:10:00,37.8,29.9,29.84,West,270,8.3,-999.0,73,-99.99,,,0.04,Acu-Link.com,2013-02-17 04:10:00,
2013-02-16 23:25:00,37.4,30.2,29.85,WNW,292,10.4,-999.0,75,-99.99,,,0.04,Acu-Link.com,2013-02-17 04:25:00,
2013-02-16 23:40:00,36.9,31.0,29.85,WNW,292,4.7,-999.0,79,-99.99,,,0.04,Acu-Link.com,2013-02-17 04:40:00,
2013-02-16 23:56:00,36.7,29.9,29.85,NW,315,10.9,-999.0,76,-99.99,,,0.04,Acu-Link.com,2013-02-17 04:56:00,